TimeAKST,TemperatureF,Dew PointF,Humidity,Sea Level PressureIn,VisibilityMPH,Wind Direction,Wind SpeedMPH,Gust SpeedMPH,PrecipitationIn,Events,Conditions,WindDirDegrees,DateUTC
12:16 AM,41.0,33.8,76,29.38,10.0,SE,20.7,26.5,0.01,,Overcast,130,2013-01-25 09:16:00
12:36 AM,41.0,33.8,76,29.39,10.0,SE,19.6,25.3,0.03,,Overcast,130,2013-01-25 09:36:00
12:56 AM,41.0,33.8,76,29.40,8.0,SE,16.1,25.3,0.04,,Overcast,130,2013-01-25 09:56:00
1:16 AM,41.0,33.8,76,29.40,10.0,SE,16.1,24.2,0.01,,Overcast,130,2013-01-25 10:16:00
1:36 AM,41.0,33.8,76,29.40,10.0,ESE,20.7,25.3,0.02,,Overcast,120,2013-01-25 10:36:00
1:56 AM,41.0,33.8,76,29.42,7.0,ESE,21.9,26.5,0.02,,Overcast,120,2013-01-25 10:56:00
2:16 AM,39.2,35.6,87,29.43,8.0,ESE,23.0,28.8,N/A,,Overcast,120,2013-01-25 11:16:00
2:36 AM,39.2,35.6,87,29.44,7.0,ESE,19.6,28.8,N/A,,Overcast,120,2013-01-25 11:36:00
2:56 AM,41.0,35.6,81,29.45,7.0,ESE,20.7,25.3,0.02,,Overcast,110,2013-01-25 11:56:00
3:16 AM,41.0,35.6,81,29.45,10.0,ESE,19.6,26.5,0.01,,Overcast,120,2013-01-25 12:16:00
3:36 AM,42.8,35.6,76,29.46,10.0,ESE,19.6,23.0,0.01,,Overcast,120,2013-01-25 12:36:00
3:56 AM,42.8,35.6,76,29.46,10.0,ESE,17.3,25.3,0.01,,Mostly Cloudy,110,2013-01-25 12:56:00
4:16 AM,42.8,35.6,76,29.47,8.0,ESE,17.3,24.2,N/A,,Mostly Cloudy,120,2013-01-25 13:16:00
4:36 AM,42.8,33.8,70,29.48,6.0,ESE,16.1,21.9,0.01,,Overcast,120,2013-01-25 13:36:00
4:56 AM,42.8,33.8,70,29.47,10.0,SE,19.6,24.2,0.01,,Mostly Cloudy,130,2013-01-25 13:56:00
5:16 AM,42.8,33.8,70,29.47,10.0,SE,13.8,21.9,N/A,,Partly Cloudy,140,2013-01-25 14:16:00
5:36 AM,42.8,33.8,70,29.47,10.0,ESE,9.2,-,N/A,,Scattered Clouds,120,2013-01-25 14:36:00
5:56 AM,42.8,35.6,76,29.46,10.0,SE,6.9,-,N/A,,Mostly Cloudy,130,2013-01-25 14:56:00
6:16 AM,41.0,35.6,81,29.46,10.0,East,10.4,-,N/A,,Overcast,100,2013-01-25 15:16:00
6:36 AM,41.0,33.8,76,29.46,10.0,SE,11.5,-,N/A,,Overcast,140,2013-01-25 15:36:00
6:56 AM,41.0,33.8,76,29.46,10.0,SSE,16.1,20.7,N/A,,Overcast,150,2013-01-25 15:56:00
7:16 AM,41.0,33.8,76,29.47,10.0,SSE,13.8,-,0.01,,Overcast,150,2013-01-25 16:16:00
7:36 AM,41.0,33.8,76,29.48,10.0,SSE,11.5,21.9,0.01,,Overcast,150,2013-01-25 16:36:00
7:56 AM,41.0,33.8,76,29.48,10.0,SE,15.0,-,0.01,,Overcast,140,2013-01-25 16:56:00
8:16 AM,41.0,33.8,76,29.49,10.0,SE,12.7,-,N/A,,Overcast,140,2013-01-25 17:16:00
8:36 AM,41.0,33.8,76,29.49,10.0,SE,12.7,-,N/A,,Overcast,130,2013-01-25 17:36:00
8:56 AM,41.0,33.8,76,29.49,10.0,SE,12.7,19.6,N/A,,Overcast,130,2013-01-25 17:56:00
9:16 AM,41.0,33.8,76,29.49,10.0,SE,16.1,21.9,N/A,,Overcast,140,2013-01-25 18:16:00
9:36 AM,41.0,33.8,76,29.50,10.0,SE,12.7,-,N/A,,Overcast,140,2013-01-25 18:36:00
9:56 AM,41.0,33.8,76,29.50,10.0,SE,15.0,-,N/A,,Overcast,140,2013-01-25 18:56:00
10:16 AM,41.0,33.8,76,29.50,10.0,SSE,12.7,-,0.01,,Overcast,150,2013-01-25 19:16:00
10:36 AM,42.8,33.8,70,29.50,10.0,SE,16.1,20.7,0.01,,Overcast,140,2013-01-25 19:36:00
10:56 AM,41.0,33.8,76,29.51,10.0,SE,17.3,23.0,0.01,,Overcast,130,2013-01-25 19:56:00
11:16 AM,41.0,32.0,70,29.52,10.0,SE,13.8,21.9,N/A,,Overcast,130,2013-01-25 20:16:00
11:36 AM,41.0,33.8,76,29.51,10.0,SE,16.1,-,N/A,,Overcast,140,2013-01-25 20:36:00
11:56 AM,41.0,33.8,76,29.51,10.0,SE,16.1,-,N/A,,Overcast,130,2013-01-25 20:56:00
12:16 PM,41.0,33.8,76,29.52,10.0,SE,17.3,-,0.01,,Overcast,130,2013-01-25 21:16:00
12:36 PM,42.8,33.8,70,29.53,10.0,ESE,13.8,20.7,0.01,,Overcast,120,2013-01-25 21:36:00
12:56 PM,42.8,33.8,70,29.53,10.0,SE,12.7,20.7,0.01,,Overcast,130,2013-01-25 21:56:00
1:16 PM,42.8,35.6,76,29.53,10.0,ESE,12.7,-,N/A,,Overcast,120,2013-01-25 22:16:00
1:36 PM,42.8,33.8,70,29.53,10.0,SE,17.3,-,N/A,,Overcast,130,2013-01-25 22:36:00
1:56 PM,41.0,33.8,76,29.53,10.0,SE,13.8,-,N/A,,Mostly Cloudy,130,2013-01-25 22:56:00
2:16 PM,41.0,33.8,76,29.53,10.0,SE,15.0,-,N/A,,Mostly Cloudy,130,2013-01-25 23:16:00
2:36 PM,41.0,33.8,76,29.54,10.0,SE,13.8,-,0.01,,Mostly Cloudy,140,2013-01-25 23:36:00
2:56 PM,41.0,33.8,76,29.54,10.0,SE,11.5,-,0.02,,Overcast,140,2013-01-25 23:56:00
3:16 PM,41.0,33.8,76,29.55,10.0,WSW,4.6,-,N/A,,Overcast,240,2013-01-26 00:16:00
3:36 PM,39.2,35.6,87,29.56,10.0,Calm,Calm,-,N/A,,Overcast,0,2013-01-26 00:36:00
3:56 PM,39.2,35.6,87,29.56,10.0,Calm,Calm,-,N/A,,Overcast,0,2013-01-26 00:56:00
4:16 PM,39.2,33.8,81,29.56,10.0,Calm,Calm,-,N/A,,Mostly Cloudy,0,2013-01-26 01:16:00
4:36 PM,39.2,33.8,81,29.57,10.0,NNW,3.5,-,N/A,,Mostly Cloudy,330,2013-01-26 01:36:00
4:56 PM,39.2,33.8,81,29.57,10.0,East,5.8,-,N/A,,Mostly Cloudy,80,2013-01-26 01:56:00
5:16 PM,39.2,33.8,81,29.57,10.0,South,5.8,-,N/A,,Mostly Cloudy,180,2013-01-26 02:16:00
5:36 PM,39.2,33.8,81,29.58,10.0,SSW,4.6,-,N/A,,Mostly Cloudy,210,2013-01-26 02:36:00
5:56 PM,39.2,33.8,81,29.59,10.0,Calm,Calm,-,N/A,,Clear,0,2013-01-26 02:56:00
6:16 PM,39.2,33.8,81,29.59,10.0,SE,4.6,-,N/A,,Clear,140,2013-01-26 03:16:00
6:36 PM,41.0,33.8,76,29.59,10.0,SSE,11.5,-,N/A,,Clear,150,2013-01-26 03:36:00
6:56 PM,39.2,33.8,81,29.59,10.0,South,5.8,-,N/A,,Clear,170,2013-01-26 03:56:00
7:16 PM,39.2,33.8,81,29.60,10.0,Calm,Calm,-,N/A,,Clear,0,2013-01-26 04:16:00
7:36 PM,39.2,33.8,81,29.61,10.0,SSE,9.2,-,N/A,,Clear,150,2013-01-26 04:36:00
7:56 PM,39.2,33.8,81,29.62,10.0,SSE,5.8,-,N/A,,Clear,160,2013-01-26 04:56:00
8:16 PM,39.2,33.8,81,29.62,10.0,Calm,Calm,-,N/A,,Clear,0,2013-01-26 05:16:00
8:36 PM,39.2,32.0,75,29.62,10.0,SSE,3.5,-,N/A,,Clear,160,2013-01-26 05:36:00
8:56 PM,39.2,32.0,75,29.63,10.0,SE,6.9,-,N/A,,Clear,140,2013-01-26 05:56:00
9:16 PM,39.2,32.0,75,29.63,10.0,South,3.5,-,N/A,,Clear,180,2013-01-26 06:16:00
9:36 PM,39.2,30.2,70,29.64,10.0,SSE,3.5,-,N/A,,Clear,160,2013-01-26 06:36:00
9:56 PM,39.2,32.0,75,29.64,10.0,Calm,Calm,-,N/A,,Partly Cloudy,0,2013-01-26 06:56:00
10:16 PM,39.2,32.0,75,29.65,10.0,SE,3.5,-,N/A,,Partly Cloudy,140,2013-01-26 07:16:00
10:36 PM,39.2,30.2,70,29.65,10.0,Calm,Calm,-,N/A,,Partly Cloudy,0,2013-01-26 07:36:00
10:56 PM,39.2,30.2,70,29.65,10.0,SSE,6.9,-,N/A,,Partly Cloudy,150,2013-01-26 07:56:00
11:16 PM,39.2,32.0,75,29.65,10.0,SE,10.4,-,N/A,,Mostly Cloudy,130,2013-01-26 08:16:00
11:36 PM,39.2,33.8,81,29.66,10.0,SE,9.2,-,N/A,,Overcast,140,2013-01-26 08:36:00
11:56 PM,39.2,32.0,75,29.66,10.0,SSE,6.9,-,N/A,,Overcast,150,2013-01-26 08:56:00